TimeEDT,TemperatureF,Dew PointF,Humidity,Sea Level PressureIn,VisibilityMPH,Wind Direction,Wind SpeedMPH,Gust SpeedMPH,PrecipitationIn,Events,Conditions,WindDirDegrees,DateUTC
12:53 AM,57.0,48.9,74,30.14,10.0,Calm,Calm,-,N/A,,Clear,0,2013-06-20 04:53:00
1:53 AM,55.0,50.0,83,30.16,10.0,SE,3.5,-,N/A,,Clear,140,2013-06-20 05:53:00
2:53 AM,57.9,51.1,78,30.15,10.0,SSE,3.5,-,N/A,,Clear,160,2013-06-20 06:53:00
3:53 AM,59.0,51.1,75,30.16,10.0,SSE,5.8,-,N/A,,Clear,160,2013-06-20 07:53:00
4:53 AM,57.9,50.0,75,30.17,10.0,SSE,3.5,-,N/A,,Clear,160,2013-06-20 08:53:00
5:53 AM,57.0,50.0,77,30.18,10.0,Calm,Calm,-,N/A,,Clear,0,2013-06-20 09:53:00
6:53 AM,55.0,50.0,83,30.18,10.0,Calm,Calm,-,N/A,,Clear,0,2013-06-20 10:53:00
7:53 AM,61.0,52.0,72,30.19,10.0,Calm,Calm,-,N/A,,Clear,0,2013-06-20 11:53:00
8:53 AM,64.9,53.1,65,30.20,10.0,South,5.8,-,N/A,,Clear,180,2013-06-20 12:53:00
9:53 AM,70.0,54.0,57,30.20,10.0,South,4.6,-,N/A,,Clear,180,2013-06-20 13:53:00
10:53 AM,73.9,55.9,53,30.20,10.0,Calm,Calm,-,N/A,,Clear,0,2013-06-20 14:53:00
11:53 AM,77.0,55.0,47,30.20,10.0,SW,5.8,-,N/A,,Clear,230,2013-06-20 15:53:00
12:53 PM,79.0,52.0,39,30.20,10.0,Calm,Calm,-,N/A,,Partly Cloudy,0,2013-06-20 16:53:00
1:53 PM,81.0,52.0,36,30.19,10.0,Calm,Calm,-,N/A,,Clear,0,2013-06-20 17:53:00
2:53 PM,82.9,51.1,33,30.18,10.0,Calm,Calm,-,N/A,,Partly Cloudy,0,2013-06-20 18:53:00
3:53 PM,81.0,53.1,38,30.17,10.0,Calm,Calm,-,N/A,,Scattered Clouds,0,2013-06-20 19:53:00
4:53 PM,82.0,52.0,35,30.16,10.0,SSE,12.7,-,N/A,,Clear,160,2013-06-20 20:53:00
5:53 PM,82.0,53.1,37,30.15,10.0,ESE,3.5,-,N/A,,Clear,110,2013-06-20 21:53:00
6:53 PM,82.0,54.0,38,30.14,10.0,SSE,5.8,-,N/A,,Clear,160,2013-06-20 22:53:00
7:53 PM,81.0,55.0,41,30.14,10.0,Calm,Calm,-,N/A,,Clear,0,2013-06-20 23:53:00
8:53 PM,78.1,55.9,46,30.14,10.0,Calm,Calm,-,N/A,,Clear,0,2013-06-21 00:53:00
9:53 PM,73.0,57.0,57,30.14,10.0,Calm,Calm,-,N/A,,Clear,0,2013-06-21 01:53:00
10:53 PM,70.0,57.9,65,30.16,10.0,Calm,Calm,-,N/A,,Clear,0,2013-06-21 02:53:00
11:53 PM,69.1,57.0,65,30.17,10.0,Calm,Calm,-,N/A,,Clear,0,2013-06-21 03:53:00